EW1762 Weather Reports


Display with metric or nautical units.
time (UTC)temp
F
wind
direction
speed
MPH
gust
MPH
rain 1hr
in
rain 24hr
in
rain mn
in
humidity
%
barometer
mb
20260504202014 72 144 2.0 10.0 0.00 0.00 0.00 36 1009.5
20260504201745 72 153 3.0 10.0 0.00 0.00 0.00 35 1009.5
20260504201014 72 121 4.0 10.0 0.00 0.00 0.00 35 1009.6
20260504200518 73 119 3.0 11.0 0.00 0.00 0.00 36 1009.8
20260504200514 73 150 3.0 10.0 0.00 0.00 0.00 35 1009.7
20260504195742 72 162 3.0 14.0 0.00 0.00 0.00 35 1009.9
20260504195008 72 171 3.0 14.0 0.00 0.00 0.00 34 1010.0
20260504194738 72 180 2.0 12.0 0.00 0.00 0.00 35 1010.1
20260504194004 72 221 2.0 11.0 0.00 0.00 0.00 34 1010.2
20260504193504 71 149 2.0 10.0 0.00 0.00 0.00 35 1010.3
20260504193005 71 187 2.0 10.0 0.00 0.00 0.00 35 1010.4
20260504192506 71 186 2.0 10.0 0.00 0.00 0.00 36 1010.4
20260504192001 72 183 1.0 10.0 0.00 0.00 0.00 35 1010.5
20260504191504 72 143 1.0 5.0 0.00 0.00 0.00 36 1010.8
20260504191459 72 124 0.0 10.0 0.00 0.00 0.00 35 1010.6
20260504190501 71 184 1.0 12.0 0.00 0.00 0.00 36 1010.8
20260504190230 71 153 2.0 12.0 0.00 0.00 0.00 38 1010.9
20260504185732 71 140 3.0 11.0 0.00 0.00 0.00 35 1010.9
20260504185225 71 155 2.0 11.0 0.00 0.00 0.00 37 1011.0
20260504184454 71 191 3.0 11.0 0.00 0.00 0.00 37 1011.1
20260504183954 71 157 2.0 10.0 0.00 0.00 0.00 37 1011.1
20260504183454 70 213 1.0 8.0 0.00 0.00 0.00 35 1011.1
20260504182954 70 215 2.0 9.0 0.00 0.00 0.00 36 1011.0
20260504182454 70 171 3.0 10.0 0.00 0.00 0.00 35 1011.0
20260504181949 70 171 3.0 10.0 0.00 0.00 0.00 37 1011.1
20260504181725 70 162 2.0 9.0 0.00 0.00 0.00 36 1011.4
20260504181450 70 171 2.0 10.0 0.00 0.00 0.00 37 1011.2
20260504180720 69 156 2.0 9.0 0.00 0.00 0.00 37 1011.4
20260504175950 69 188 1.0 8.0 0.00 0.00 0.00 36 1011.5
20260504175451 69 226 1.0 7.0 0.00 0.00 0.00 37 1011.5
20260504174951 69 186 2.0 10.0 0.00 0.00 0.00 37 1011.6
20260504174434 69 143 3.0 12.0 0.00 0.00 0.00 37 1011.7
20260504173936 69 248 3.0 12.0 0.00 0.00 0.00 37 1011.7
20260504173438 69 170 2.0 6.0 0.00 0.00 0.00 38 1011.8
20260504172935 69 166 1.0 7.0 0.00 0.00 0.00 37 1011.8
20260504172432 68 160 2.0 11.0 0.00 0.00 0.00 38 1011.8
20260504171932 69 212 2.0 11.0 0.00 0.00 0.00 37 1011.8
20260504171430 69 227 2.0 10.0 0.00 0.00 0.00 36 1011.9
20260504170930 69 175 2.0 10.0 0.00 0.00 0.00 38 1011.9
20260504170430 69 193 1.0 10.0 0.00 0.00 0.00 37 1012.0
20260504160415 67 152 0.0 5.0 0.00 0.00 0.00 46 1013.0
20260504160146 66 202 1.0 8.0 0.00 0.00 0.00 46 1013.1
20260504150858 64 169 1.0 7.0 0.00 0.00 0.00 48 1013.5
20260504150356 64 150 1.0 7.0 0.00 0.00 0.00 47 1013.5
20260504150130 64 164 0.0 5.0 0.00 0.00 0.00 48 1013.6
20260504141119 62 144 1.0 7.0 0.00 0.00 0.00 51 1013.7
20260504140348 61 244 1.0 6.0 0.00 0.00 0.00 51 1013.7
20260504130329 59 146 1.0 10.0 0.00 0.00 0.00 54 1014.1
20260504120317 54 190 0.0 0.0 0.00 0.00 0.00 66 1014.3
20260504110531 42 306 0.0 0.0 0.00 0.00 0.00 91 1014.6
20260504100249 40 273 0.0 0.0 0.00 0.00 0.00 91 1014.5
20260504081727 40 273 0.0 0.0 0.00 0.00 0.00 90 1014.8
20260504081227 40 273 0.0 0.0 0.00 0.00 0.00 90 1014.7
20260504080724 40 273 0.0 0.0 0.00 0.00 0.00 89 1014.8
20260504080224 40 273 0.0 0.0 0.00 0.00 0.00 89 1014.8
20260504070210 41 273 0.0 0.0 0.00 0.00 0.00 89 1014.8
20260504060154 41 273 0.0 0.0 0.00 0.00 0.00 88 1014.8
20260504050642 41 273 0.0 0.0 0.00 0.00 0.00 86 1015.0
20260504050142 41 273 0.0 0.0 0.00 0.00 0.00 86 1015.1
20260504045915 41 273 0.0 0.0 0.00 0.00 0.00 85 1015.0
20260504045144 41 273 0.0 0.0 0.00 0.00 0.00 85 1015.0
20260504044643 41 274 0.0 0.0 0.00 0.00 0.00 84 1015.0
20260504044139 41 273 0.0 0.0 0.00 0.00 0.00 84 1015.0
20260504043635 42 273 0.0 0.0 0.00 0.00 0.00 84 1015.0
20260504043135 42 273 0.0 0.0 0.00 0.00 0.00 84 1015.0
20260504042635 42 273 0.0 0.0 0.00 0.00 0.00 83 1015.0
20260504042132 42 273 0.0 0.0 0.00 0.00 0.00 83 1014.7
20260504041638 42 273 0.0 0.0 0.00 0.00 0.00 83 1014.6
20260504041633 42 274 0.0 0.0 0.00 0.00 0.00 84 1014.6
20260504040631 42 274 0.0 0.0 0.00 0.00 0.00 82 1014.8
20260504040131 42 273 0.0 0.0 0.00 0.00 0.00 82 1014.7
20260504035901 42 273 0.0 0.0 0.00 0.00 0.00 82 1014.6
20260504035130 42 273 0.0 0.0 0.00 0.00 0.00 82 1014.6
20260504034629 43 273 0.0 0.0 0.00 0.00 0.00 82 1014.6
20260504034130 43 274 0.0 0.0 0.00 0.00 0.00 82 1014.5
20260504033632 43 273 0.0 0.0 0.00 0.00 0.00 81 1014.4
20260504033126 43 274 0.0 0.0 0.00 0.00 0.00 81 1014.4
20260504032626 43 273 0.0 0.0 0.00 0.00 0.00 80 1014.3
20260504032123 43 274 0.0 0.0 0.00 0.00 0.00 80 1014.3
20260504031626 44 274 0.0 0.0 0.00 0.00 0.00 80 1014.3
20260504031124 44 274 0.0 0.0 0.00 0.00 0.00 79 1014.2
20260504030624 44 273 0.0 0.0 0.00 0.00 0.00 78 1014.2
20260504030122 44 273 0.0 0.0 0.00 0.00 0.00 77 1014.3
20260504025620 44 273 0.0 0.0 0.00 0.00 0.00 76 1014.3
20260504025118 45 274 0.0 0.0 0.00 0.00 0.00 76 1014.3
20260504024618 45 273 0.0 0.0 0.00 0.00 0.00 75 1014.3
20260504024115 45 274 0.0 0.0 0.00 0.00 0.00 75 1014.2
20260504023615 46 273 0.0 0.0 0.00 0.00 0.00 73 1014.1
20260504023350 46 273 0.0 0.0 0.00 0.00 0.00 71 1014.2
20260504022613 46 273 0.0 0.0 0.00 0.00 0.00 71 1014.2
20260504022342 46 273 0.0 0.0 0.00 0.00 0.00 70 1014.2
20260504021604 47 274 0.0 0.0 0.00 0.00 0.00 71 1014.1
20260504021104 47 273 0.0 0.0 0.00 0.00 0.00 70 1014.2
20260504020837 47 273 0.0 0.0 0.00 0.00 0.00 69 1014.2
20260504020106 47 274 0.0 0.0 0.00 0.00 0.00 68 1014.2
20260504015606 47 274 0.0 0.0 0.00 0.00 0.00 66 1014.1
20260504015106 48 274 0.0 0.0 0.00 0.00 0.00 67 1014.1
20260504014604 48 273 0.0 0.0 0.00 0.00 0.00 65 1014.1
20260504014105 48 273 0.0 0.0 0.00 0.00 0.00 64 1014.0
20260504013605 49 274 0.0 0.0 0.00 0.00 0.00 63 1014.1
20260504013105 49 274 0.0 0.0 0.00 0.00 0.00 63 1014.0
20260504012842 49 274 0.0 0.0 0.00 0.00 0.00 63 1014.0
20260504012100 50 273 0.0 0.0 0.00 0.00 0.00 63 1013.8
20260504011601 50 274 0.0 0.0 0.00 0.00 0.00 62 1013.9
20260504011102 50 274 0.0 0.0 0.00 0.00 0.00 60 1013.8
20260504010833 51 274 0.0 0.0 0.00 0.00 0.00 61 1013.7
20260504010101 51 274 0.0 0.0 0.00 0.00 0.00 60 1013.8
20260504005602 51 274 0.0 0.0 0.00 0.00 0.00 59 1013.7
20260504005058 52 274 0.0 0.0 0.00 0.00 0.00 52 1013.6
20260504004558 52 273 0.0 0.0 0.00 0.00 0.00 51 1013.6
20260504004328 53 274 0.0 0.0 0.00 0.00 0.00 51 1013.6
20260504003557 53 274 0.0 0.0 0.00 0.00 0.00 50 1013.6
20260504003057 54 274 0.0 0.0 0.00 0.00 0.00 47 1013.4
20260504002556 55 274 0.0 0.0 0.00 0.00 0.00 46 1013.4
20260504002058 56 274 0.0 0.0 0.00 0.00 0.00 45 1013.3
20260504001558 56 274 0.0 0.0 0.00 0.00 0.00 42 1013.2
20260504001104 57 274 0.0 0.0 0.00 0.00 0.00 39 1013.2
20260504001059 57 274 0.0 0.0 0.00 0.00 0.00 41 1013.2
20260504000050 58 274 0.0 0.0 0.00 0.00 0.00 38 1013.2
20260503235823 58 274 0.0 0.0 0.00 0.00 0.00 37 1013.1
20260503235321 59 274 0.0 0.0 0.00 0.00 0.00 36 1013.0
20260503234550 59 274 0.0 0.0 0.00 0.00 0.00 35 1013.0
20260503234321 59 274 0.0 1.0 0.00 0.00 0.00 34 1012.9
20260503233549 59 274 0.0 1.0 0.00 0.00 0.00 34 1012.8
20260503233049 60 296 0.0 7.0 0.00 0.00 0.00 34 1012.8
20260503232545 60 258 0.0 7.0 0.00 0.00 0.00 33 1012.7
20260503232046 60 242 0.0 2.0 0.00 0.00 0.00 32 1012.8
20260503231543 61 234 0.0 2.0 0.00 0.00 0.00 32 1012.8
20260503231043 61 299 0.0 5.0 0.00 0.00 0.00 32 1012.9
20260503230543 62 330 0.0 5.0 0.00 0.00 0.00 30 1012.8
20260503230314 62 248 0.0 1.0 0.00 0.00 0.00 31 1012.9
20260503225539 62 292 0.0 3.0 0.00 0.00 0.00 30 1012.9
20260503225039 61 240 1.0 13.0 0.00 0.00 0.00 30 1012.9
20260503224538 61 290 2.0 13.0 0.00 0.00 0.00 30 1012.9
20260503224040 61 304 1.0 9.0 0.00 0.00 0.00 30 1012.8
20260503223537 61 248 0.0 4.0 0.00 0.00 0.00 31 1012.7
20260503223040 62 315 0.0 0.0 0.00 0.00 0.00 30 1012.7
20260503222534 62 323 0.0 0.0 0.00 0.00 0.00 31 1012.7
20260503222035 61 250 0.0 15.0 0.00 0.00 0.00 30 1012.7
20260503221535 61 323 0.0 15.0 0.00 0.00 0.00 31 1012.8
20260503221033 61 229 1.0 15.0 0.00 0.00 0.00 30 1012.9
20260503220531 62 269 1.0 15.0 0.00 0.00 0.00 30 1012.8
20260503220030 62 266 0.0 3.0 0.00 0.00 0.00 29 1012.9
20260503215527 62 252 0.0 7.0 0.00 0.00 0.00 30 1012.9
20260503215027 62 240 0.0 7.0 0.00 0.00 0.00 32 1012.8
20260503214529 61 269 0.0 13.0 0.00 0.00 0.00 30 1012.7
20260503214031 61 267 0.0 9.0 0.00 0.00 0.00 32 1012.7
20260503214027 61 324 0.0 13.0 0.00 0.00 0.00 30 1012.7
20260503213255 61 297 1.0 13.0 0.00 0.00 0.00 29 1012.7
20260503212521 61 227 1.0 13.0 0.00 0.00 0.00 30 1012.7
20260503212020 61 285 2.0 13.0 0.00 0.00 0.00 30 1012.7
20260503211520 61 238 1.0 13.0 0.00 0.00 0.00 29 1012.8
20260503211021 61 300 1.0 10.0 0.00 0.00 0.00 30 1012.8
20260503210520 61 329 3.0 15.0 0.00 0.00 0.00 30 1012.8
20260503210025 61 263 4.0 15.0 0.00 0.00 0.00 31 1012.7
20260503210017 61 284 3.0 14.0 0.00 0.00 0.00 31 1012.9
20260503205013 60 236 4.0 12.0 0.00 0.00 0.00 31 1012.9
20260503204513 61 242 5.0 13.0 0.00 0.00 0.00 29 1012.9
20260503204245 61 259 3.0 13.0 0.00 0.00 0.00 32 1012.9
20260503203513 60 288 1.0 10.0 0.00 0.00 0.00 31 1012.9
20260503203013 60 247 3.0 16.0 0.00 0.00 0.00 31 1013.0
20260503202507 60 267 3.0 16.0 0.00 0.00 0.00 32 1013.0